Flag for Austria Weather past 2 weeks in Knittelfeld, Styria, Austria

Now
46 °F

Scattered clouds.


Feels Like: 41 °F
Forecast: 29 / 56 °F
Wind: 10 mph from North

Location: Zeltweg


UV Index: 5 (Moderate)

Visibility: 22 mi


Pressure: 30.18 "Hg

Humidity: 40%

Dew point: 23 °F

Location of KnittelfeldLocation

Historic Weather in Knittelfeld

°F

Knittelfeld temperature yesterday

Maximum temperature yesterday: 48 °F (at 11:50 AM)
Minimum temperature yesterday: 34 °F (at 7:50 AM)
Average temperature yesterday: 40 °F

Past Weeks' High & Low Weather Summary

 TemperatureHumidityPressure
High72 °F (Apr 8, 2:50 PM)100% (Apr 7, 7:20 AM)30.18 "Hg (Apr 7, 7:20 AM)
Low32 °F (Apr 14, 4:50 AM)23% (Apr 1, 3:50 PM)29.71 "Hg (Apr 4, 3:20 PM)
Average51 °F62%29.97 "Hg
* Reported Apr 1 3:20 PM — Apr 16 3:50 PM, Knittelfeld, Weather by CustomWeather, © 2014

Note: Actual official high and low records may vary slightly from our data, if they occured in-between our weather recording intervals... More about our weather records

Advertising

Historic Weather Conditions — Data for Previous 24 hours

 ConditionsComfort  
Time TempWeatherWind HumidityBarometerVisibility
3:50 PM
Apr 16
46 °FScattered clouds.12 mph40%30.18 "Hg22 mi
3:20 PM46 °FScattered clouds.13 mph46%30.18 "Hg19 mi
2:50 PM46 °FPartly sunny.15 mph40%30.18 "Hg19 mi
2:20 PM46 °FPartly sunny.17 mph43%30.18 "Hg19 mi
1:50 PM45 °FPartly sunny.14 mph46%30.18 "Hg19 mi
1:20 PM45 °FPartly sunny.15 mph46%30.18 "Hg19 mi
12:50 PM45 °FPartly sunny.10 mph46%30.18 "Hg19 mi
12:20 PM45 °FPartly sunny.14 mph42%30.18 "Hg19 mi
11:50 AM45 °FPartly sunny.9 mph46%30.18 "Hg19 mi
11:20 AM43 °FPartly sunny.3 mph49%30.18 "Hg19 mi
10:50 AM43 °FPartly sunny.6 mph53%30.18 "Hg19 mi
10:20 AM41 °FPartly sunny.7 mph53%30.18 "Hg19 mi
9:50 AM41 °FPartly sunny.5 mph53%30.18 "Hg19 mi
9:20 AM41 °FPartly sunny.6 mph53%30.18 "Hg19 mi
8:50 AM41 °FPartly sunny.2 mph57%30.18 "Hg19 mi
8:20 AM37 °FPartly sunny.5 mph65%30.15 "Hg19 mi
7:50 AM36 °FPartly sunny.2 mph75%30.15 "Hg19 mi
7:20 AM34 °FPartly sunny.2 mph81%30.15 "Hg19 mi
6:50 AM34 °FPassing clouds.6 mph81%30.15 "Hg19 mi
5:50 AM34 °FPassing clouds.5 mph87%30.12 "Hg19 mi
10:50 PM
Apr 15
37 °FPassing clouds.3 mph60%30.09 "Hg25 mi
9:50 PM37 °FPassing clouds.9 mph56%30.09 "Hg25 mi
8:50 PM37 °FPassing clouds.3 mph56%30.09 "Hg25 mi
7:50 PM39 °FPassing clouds.14 mph52%30.07 "Hg25 mi
6:50 PM43 °FScattered clouds.2 mph42%30.07 "Hg25 mi
5:50 PM43 °FPartly sunny.9 mph42%30.04 "Hg25 mi
Weather by CustomWeather, © 2014

See weather overview